Weather History for KPOV - April, 2013

Change the Weather History Date:

Sunday, April 7, 2013

  Actual Average (KCAK) Record (KCAK)
Temperature  
Mean Temperature 56 °F 46 °F  
Max Temperature 69 °F 56 °F 82 °F (1929)
Min Temperature 43 °F 36 °F 16 °F (1972)
Degree Days  
Heating Degree Days 8 19  
Month to date heating degree days 141  
Since 1 July heating degree days 5536  
Cooling Degree Days 0 0  
Month to date cooling degree days 0  
Year to date cooling degree days 0  
Growing Degree Days 6 (Base 50)    
Moisture  
Dew Point 31 °F    
Average Humidity 41    
Maximum Humidity 73    
Minimum Humidity 22    
Precipitation  
Precipitation 0.00 in 0.12 in 0.63 in (2006)
Month to date precipitation 0.83  
Year to date precipitation 8.73  
Snow  
Snow 0.00 in 0.10 in - ()
Month to date snowfall 1.1  
Since 1 July snowfall 45.8  
Snow Depth -    
Sea Level Pressure  
Sea Level Pressure 29.88 in    
Wind  
Wind Speed 9 mph (SW)    
Max Wind Speed 22 mph    
Max Gust Speed 31 mph    
Visibility 10 miles    
Events      
T = Trace of Precipitation, MM = Missing Value Source: NWS Daily Summary

Daily Weather History Graph

Daily Weather History Graph

Search for Another Location

Airport or City:

Trip Planner

Search our weather history database for the weather conditions in past years. The results will help you decide how hot, cold, wet, or windy it might be!

Date:

Astronomy

Apr. 07, 2013 Rise Set
Actual Time 6:57 AM EDT 7:56 PM EDT
Civil Twilight 6:29 AM EDT 8:24 PM EDT
Nautical Twilight 5:56 AM EDT 8:58 PM EDT
Astronomical Twilight 5:21 AM EDT 9:33 PM EDT
Moon 5:16 AM EDT (4/7) 5:26 PM EDT (4/7)
Length of Visible Light 13h 55m
Length of Day
12h 58m
Waning Crescent, 8% of the Moon is Illuminated
Apr 7
Waning Crescent
Apr 10
New
Apr 18
First Quarter
Apr 25
Full
May 2
Last Quarter

Hourly Weather History & Observations

Time (EDT) Temp. Windchill Dew Point Humidity Pressure Visibility Wind Dir Wind Speed Gust Speed Precip Events Conditions
12:17 AM 50.2 °F - 12.6 °F 22% 29.94 in 10.0 mi SE 5.8 mph - N/A   Clear
12:37 AM 50.2 °F - 12.4 °F 22% 29.93 in 10.0 mi SE 6.9 mph - N/A   Clear
12:56 AM 50.0 °F - 12.7 °F 23% 29.92 in 10.0 mi SE 6.9 mph - N/A   Clear
1:17 AM 50.0 °F - 12.9 °F 23% 29.91 in 10.0 mi SE 6.9 mph - N/A   Clear
1:37 AM 50.0 °F - 12.9 °F 23% 29.90 in 10.0 mi SE 5.8 mph - N/A   Clear
1:57 AM 50.2 °F - 12.7 °F 22% 29.89 in 10.0 mi SE 5.8 mph - N/A   Clear
2:17 AM 50.7 °F - 13.1 °F 22% 29.88 in 10.0 mi SE 6.9 mph - N/A   Clear
2:37 AM 50.7 °F - 14.4 °F 24% 29.88 in 10.0 mi SSE 5.8 mph - N/A   Clear
2:57 AM 52.7 °F - 16.3 °F 24% 29.87 in 10.0 mi SSE 8.1 mph - N/A   Clear
3:17 AM 53.6 °F - 17.6 °F 24% 29.86 in 10.0 mi SSE 9.2 mph - N/A   Clear
3:37 AM 53.8 °F - 18.7 °F 25% 29.85 in 10.0 mi South 6.9 mph - N/A   Scattered Clouds
3:56 AM 54.1 °F - 19.9 °F 26% 29.85 in 10.0 mi South 8.1 mph 16.1 mph N/A   Scattered Clouds
4:17 AM 54.5 °F - 21.0 °F 27% 29.85 in 10.0 mi South 8.1 mph - N/A   Clear
4:37 AM 54.7 °F - 22.5 °F 29% 29.84 in 10.0 mi South 6.9 mph - N/A   Scattered Clouds
4:56 AM 54.3 °F - 23.4 °F 30% 29.83 in 10.0 mi SSE 5.8 mph - N/A   Clear
5:17 AM 54.5 °F - 25.0 °F 32% 29.83 in 10.0 mi SSE 6.9 mph - N/A   Mostly Cloudy
5:37 AM 55.6 °F - 26.4 °F 33% 29.82 in 10.0 mi South 8.1 mph - N/A   Scattered Clouds
5:57 AM 55.4 °F - 27.3 °F 34% 29.82 in 10.0 mi South 5.8 mph - N/A   Clear
6:17 AM 56.7 °F - 28.4 °F 34% 29.82 in 10.0 mi South 9.2 mph 19.6 mph N/A   Clear
6:37 AM 57.4 °F - 29.3 °F 34% 29.81 in 10.0 mi SSW 9.2 mph 18.4 mph N/A   Scattered Clouds
6:57 AM 57.2 °F - 29.8 °F 35% 29.81 in 10.0 mi South 11.5 mph 26.5 mph N/A   Scattered Clouds
7:17 AM 57.4 °F - 30.2 °F 36% 29.81 in 10.0 mi SSW 8.1 mph 20.7 mph N/A   Mostly Cloudy
7:36 AM 57.4 °F - 30.7 °F 36% 29.81 in 10.0 mi SSW 11.5 mph 20.7 mph N/A   Scattered Clouds
7:57 AM 58.1 °F - 31.1 °F 36% 29.82 in 10.0 mi SSW 10.4 mph 23.0 mph N/A   Mostly Cloudy
8:17 AM 58.1 °F - 31.8 °F 37% 29.82 in 10.0 mi SSW 12.7 mph 27.6 mph N/A   Overcast
8:37 AM 58.3 °F - 32.0 °F 37% 29.82 in 10.0 mi SSW 10.4 mph 26.5 mph N/A   Scattered Clouds
8:57 AM 59.7 °F - 32.2 °F 35% 29.82 in 10.0 mi SSW 11.5 mph 23.0 mph N/A   Scattered Clouds
9:17 AM 60.6 °F - 32.5 °F 35% 29.81 in 10.0 mi SSW 13.8 mph 25.3 mph N/A   Overcast
9:36 AM 59.9 °F - 34.0 °F 38% 29.81 in 10.0 mi SW 15.0 mph 31.1 mph N/A   Mostly Cloudy
9:57 AM 59.9 °F - 34.7 °F 39% 29.81 in 10.0 mi WSW 11.5 mph 23.0 mph N/A   Mostly Cloudy
10:17 AM 61.3 °F - 35.4 °F 38% 29.81 in 10.0 mi SW 16.1 mph 23.0 mph N/A   Scattered Clouds
10:36 AM 61.7 °F - 36.3 °F 39% 29.82 in 10.0 mi SW 17.3 mph 25.3 mph N/A   Clear
10:57 AM 61.9 °F - 37.8 °F 41% 29.83 in 10.0 mi WSW 10.4 mph 29.9 mph N/A   Clear
11:17 AM 63.5 °F - 38.1 °F 39% 29.83 in 10.0 mi WSW 16.1 mph 29.9 mph N/A   Clear
11:37 AM 64.2 °F - 39.0 °F 39% 29.83 in 10.0 mi WSW 11.5 mph 26.5 mph N/A   Clear
11:57 AM 65.5 °F - 38.5 °F 37% 29.83 in 10.0 mi SW 16.1 mph 28.8 mph N/A   Clear
12:17 PM 64.8 °F - 37.8 °F 37% 29.84 in 10.0 mi SW 10.4 mph 26.5 mph N/A   Clear
12:36 PM 66.2 °F - 37.6 °F 35% 29.83 in 10.0 mi WSW 19.6 mph 26.5 mph N/A   Clear
12:57 PM 66.6 °F - 37.2 °F 34% 29.84 in 10.0 mi WSW 17.3 mph 24.2 mph N/A   Unknown
1:17 PM 67.3 °F - 37.4 °F 33% 29.84 in 10.0 mi WSW 16.1 mph 31.1 mph N/A   Unknown
1:36 PM 67.5 °F - 37.4 °F 33% 29.84 in 10.0 mi WSW 19.6 mph 27.6 mph N/A   Scattered Clouds
1:57 PM 68.5 °F - 37.2 °F 32% 29.84 in 10.0 mi WSW 21.9 mph 27.6 mph N/A   Scattered Clouds
2:17 PM 68.0 °F - 36.7 °F 32% 29.84 in 10.0 mi WSW 20.7 mph 27.6 mph N/A   Scattered Clouds
2:36 PM 69.1 °F - 36.5 °F 30% 29.84 in 10.0 mi WSW 12.7 mph 28.8 mph N/A   Scattered Clouds
2:57 PM 69.3 °F - 37.0 °F 31% 29.85 in 10.0 mi WSW 21.9 mph 31.1 mph N/A   Mostly Cloudy
3:17 PM 68.5 °F - 35.8 °F 30% 29.85 in 10.0 mi WSW 17.3 mph 29.9 mph N/A   Overcast
3:37 PM 68.9 °F - 36.0 °F 30% 29.86 in 10.0 mi West 18.4 mph 27.6 mph N/A   Overcast
3:57 PM 61.9 °F - 42.1 °F 48% 29.87 in 10.0 mi NNW 13.8 mph 18.4 mph N/A   Overcast
4:17 PM 62.8 °F - 42.1 °F 47% 29.88 in 10.0 mi NW 12.7 mph 19.6 mph N/A   Mostly Cloudy
4:36 PM 61.0 °F - 42.1 °F 50% 29.88 in 10.0 mi NW 12.7 mph 18.4 mph N/A   Scattered Clouds
4:57 PM 60.6 °F - 41.4 °F 49% 29.90 in 10.0 mi NW 9.2 mph 19.6 mph N/A   Clear
5:17 PM 60.4 °F - 41.0 °F 49% 29.91 in 10.0 mi NW 11.5 mph 16.1 mph N/A   Clear
5:36 PM 59.4 °F - 39.9 °F 49% 29.92 in 10.0 mi WNW 9.2 mph 19.6 mph N/A   Clear
5:57 PM 58.8 °F - 39.9 °F 50% 29.93 in 10.0 mi NW 11.5 mph 17.3 mph N/A   Clear
6:17 PM 57.2 °F - 39.2 °F 51% 29.93 in 10.0 mi NNW 12.7 mph 24.2 mph N/A   Clear
6:36 PM 55.9 °F - 39.0 °F 53% 29.94 in 10.0 mi NW 9.2 mph 16.1 mph N/A   Clear
6:57 PM 54.5 °F - 37.9 °F 54% 29.95 in 10.0 mi NW 12.7 mph 19.6 mph N/A   Clear
7:17 PM 52.7 °F - 37.0 °F 55% 29.96 in 10.0 mi NW 9.2 mph 16.1 mph N/A   Clear
7:37 PM 51.8 °F - 36.5 °F 56% 29.97 in 10.0 mi NNW 6.9 mph - N/A   Clear
7:57 PM 51.3 °F - 35.8 °F 55% 29.97 in 10.0 mi NW 4.6 mph - N/A   Clear
8:17 PM 50.9 °F - 35.6 °F 56% 29.98 in 10.0 mi NW 4.6 mph - N/A   Clear
8:36 PM 50.0 °F - 35.6 °F 58% 29.98 in 10.0 mi NW 3.5 mph - N/A   Clear
8:57 PM 49.5 °F - 35.6 °F 59% 29.99 in 10.0 mi Calm Calm - N/A   Clear
9:17 PM 48.4 °F - 35.1 °F 60% 30.00 in 10.0 mi North 4.6 mph - N/A   Clear
9:37 PM 47.5 °F - 35.4 °F 63% 30.00 in 10.0 mi Calm Calm - N/A   Clear
9:57 PM 46.6 °F - 35.4 °F 65% 30.01 in 10.0 mi Calm Calm - N/A   Clear
10:17 PM 46.0 °F - 34.9 °F 65% 30.01 in 10.0 mi Calm Calm - N/A   Clear
10:37 PM 45.0 °F - 34.7 °F 67% 30.02 in 10.0 mi Calm Calm - N/A   Clear
10:57 PM 44.8 °F 43.3 °F 34.7 °F 68% 30.01 in 10.0 mi NE 3.5 mph - N/A   Clear
11:17 PM 44.1 °F 41.5 °F 34.7 °F 70% 30.01 in 10.0 mi NE 4.6 mph - N/A   Clear
11:36 PM 44.8 °F 42.4 °F 34.7 °F 68% 30.02 in 10.0 mi NE 4.6 mph - N/A   Clear
11:57 PM 43.2 °F 39.0 °F 34.9 °F 73% 30.02 in 10.0 mi ENE 6.9 mph - N/A   Clear